User: anonymous   Login
Location: *
(33.8649°S, 62.1526°E)
Time: 07:21:31
(UTC+00:00)
Language:

Cosmos 2297 - Orbit

View from above orbital plane
View from above orbital plane
View from above satellite
View from above satellite

Ground track
Ground track

The orbit data is extracted from the following two-line orbital elements,

1 23404U 94077A   21108.81292988  .00000243  00000-0  15368-3 0  9994
2 23404  71.0155 238.8155 0015670 187.3256 172.7639 14.13553343362094
Epoch (UTC): 18 April 2021 19:30:37
Eccentricity: 0.0015670
inclination: 71.0155°
perigee height: 836 km
apogee height: 858 km
right ascension of ascending node: 238.8155°
argument of perigee: 187.3256°
revolutions per day: 14.13553343
mean anomaly at epoch: 172.7639°
orbit number at epoch: 36209

The dashed part of the orbit path shows where the satellite is in the earth's shadow,  

DLR